Hourly Data Report for October 15, 2015

All times are specified in Local Standard Time (LST). Add 1 hour to adjust for Daylight Saving Time where and when it is observed.

CORAL HARBOUR A
NUNAVUT

64°11'36.000" N
83°21'34.000" W
62.20 m
2301002
71915
YZS

Download Data

Hourly Data (October 2015)
Hourly Data Report for October 15, 2015
Temp Definition
°C
Dew Point Temp Definition
°C
Rel Hum Definition
%
Wind Dir Definition
10's deg

Wind Spd Definition
km/h
Visibility Definition
km
Stn Press Definition
kPa
Hmdx Definition


Wind Chill Definition


Weather Definition


TIME
00:00 Legend Double Dagger -8.6 -10.8 84 30 24 24.1 99.73   -17 LegendNANA
01:00 Legend Double Dagger -11.1 -13.0 86 29 10 24.1 99.77   -17 Mainly Clear
02:00 Legend Double Dagger -9.9 -12.4 82 31 18 24.1 99.76   -17 LegendNANA
03:00 Legend Double Dagger -11.8 -14.1 83 30 16 24.1 99.79   -19 LegendNANA
04:00 Legend Double Dagger -10.4 -13.2 80 30 28 24.1 99.78   -20 Mainly Clear
05:00 Legend Double Dagger -10.9 -13.9 79 31 18 24.1 99.83   -19 LegendNANA
06:00 Legend Double Dagger -11.2 -14.3 78 31 27 24.1 99.85   -21 LegendNANA
07:00 Legend Double Dagger -11.2 -14.6 76 33 27 24.1 99.89   -21 Clear
08:00 Legend Double Dagger -11.3 -14.6 77 33 31 24.1 99.91   -21 LegendNANA
09:00 Legend Double Dagger -10.5 -14.3 74 33 27 24.1 99.98   -20 LegendNANA
10:00 Legend Double Dagger -9.4 -13.4 73 32 35 24.1 99.99   -19 Mainly Clear
11:00 Legend Double Dagger -8.7 -13.1 71 32 33 24.1 100.05   -18 LegendNANA
12:00 Legend Double Dagger -8.5 -12.9 71 31 38 24.1 100.10   -19 LegendNANA
13:00 Legend Double Dagger -8.3 -12.7 71 31 28 24.1 100.17   -17 Mainly Clear
14:00 Legend Double Dagger -8.4 -12.4 73 31 30 24.1 100.16   -17 LegendNANA
15:00 Legend Double Dagger -8.8 -12.6 74 31 26 24.1 100.23   -17 Snow
16:00 Legend Double Dagger -9.7 -13.0 77 31 25 24.1 100.26   -18 Snow
17:00 Legend Double Dagger -11.1 -13.9 80 30 23 24.1 100.29   -20 LegendNANA
18:00 Legend Double Dagger -11.9 -15.0 78 32 20 24.1 100.34   -20 LegendNANA
19:00 Legend Double Dagger -9.6 -12.9 77 31 33 24.1 100.34   -19 Mainly Clear
20:00 Legend Double Dagger -8.9 -12.2 77 31 17 24.1 100.36   -16 Snow
21:00 Legend Double Dagger -9.2 -12.5 77 31 37 24.1 100.33   -19 Snow
22:00 Legend Double Dagger -9.4 -13.2 74 31 28 24.1 100.38   -18 Snow
23:00 Legend Double Dagger -10.7 -14.2 76 32 12 24.1 100.39   -17 Snow

Notes on Data Quality.

Legend

  • E = Estimated
  • M = Missing
  • NA = Not Available
  • ‡ = Partner data that is not subject to review by the National Climate Archives
Date modified: